Year,Month,Day,Hour,Minute,Value (Times are PST for temperature in C)
2006,07,16,00,00,11.80
2006,07,16,00,01,11.80
2006,07,16,00,02,11.80
2006,07,16,00,03,11.80
2006,07,16,00,04,11.80
2006,07,16,00,05,11.80
2006,07,16,00,06,11.80
2006,07,16,00,07,11.80
2006,07,16,00,08,11.80
2006,07,16,00,09,11.70
2006,07,16,00,10,11.70
2006,07,16,00,11,11.70
2006,07,16,00,12,11.70
2006,07,16,00,13,11.70
2006,07,16,00,14,11.70
2006,07,16,00,15,11.60
2006,07,16,00,16,11.60
2006,07,16,00,17,11.60
2006,07,16,00,18,11.60
2006,07,16,00,19,11.60
2006,07,16,00,20,11.60
2006,07,16,00,21,11.60
2006,07,16,00,22,11.60
2006,07,16,00,23,11.60
2006,07,16,00,24,11.60
2006,07,16,00,25,11.60
2006,07,16,00,26,11.60
2006,07,16,00,27,11.60
2006,07,16,00,28,11.60
2006,07,16,00,29,11.40
2006,07,16,00,30,11.40
2006,07,16,00,31,11.40
2006,07,16,00,32,11.40
2006,07,16,00,33,11.40
2006,07,16,00,34,11.40
2006,07,16,00,35,11.40
2006,07,16,00,36,11.30
2006,07,16,00,37,11.30
2006,07,16,00,38,11.30
2006,07,16,00,39,11.30
2006,07,16,00,40,11.20
2006,07,16,00,41,11.20
2006,07,16,00,42,11.20
2006,07,16,00,43,11.20
2006,07,16,00,44,11.10
2006,07,16,00,45,11.10
2006,07,16,00,46,11.10
2006,07,16,00,47,11.10
2006,07,16,00,48,11.10
2006,07,16,00,49,11.10
2006,07,16,00,50,11.10
2006,07,16,00,51,11.10
2006,07,16,00,52,11.10
2006,07,16,00,53,11.10
2006,07,16,00,54,11.00
2006,07,16,00,55,10.90
2006,07,16,00,56,10.90
2006,07,16,00,57,10.90
2006,07,16,00,58,10.90
2006,07,16,00,59,10.90
2006,07,16,01,00,10.90
2006,07,16,01,01,10.90
2006,07,16,01,02,10.90
2006,07,16,01,03,10.90
2006,07,16,01,04,10.90
2006,07,16,01,05,10.90
2006,07,16,01,06,10.90
2006,07,16,01,07,10.90
2006,07,16,01,08,10.80
2006,07,16,01,09,10.80
2006,07,16,01,10,10.80
2006,07,16,01,11,10.80
2006,07,16,01,12,10.70
2006,07,16,01,13,10.70
2006,07,16,01,14,10.70
2006,07,16,01,15,10.70
2006,07,16,01,16,10.70
2006,07,16,01,17,10.60
2006,07,16,01,18,10.60
2006,07,16,01,19,10.60
2006,07,16,01,20,10.60
2006,07,16,01,21,10.60
2006,07,16,01,22,10.60
2006,07,16,01,23,10.60
2006,07,16,01,24,10.60
2006,07,16,01,25,10.60
2006,07,16,01,26,10.60
2006,07,16,01,27,10.60
2006,07,16,01,28,10.60
2006,07,16,01,29,10.60
2006,07,16,01,30,10.50
2006,07,16,01,31,10.40
2006,07,16,01,32,10.40
2006,07,16,01,33,10.40
2006,07,16,01,34,10.40
2006,07,16,01,35,10.40
2006,07,16,01,36,10.40
2006,07,16,01,37,10.40
2006,07,16,01,38,10.40
2006,07,16,01,39,10.40
2006,07,16,01,40,10.40
2006,07,16,01,41,10.40
2006,07,16,01,42,10.30
2006,07,16,01,43,10.30
2006,07,16,01,44,10.30
2006,07,16,01,45,10.30
2006,07,16,01,46,10.30
2006,07,16,01,47,10.30
2006,07,16,01,48,10.20
2006,07,16,01,49,10.20
2006,07,16,01,50,10.20
2006,07,16,01,51,10.20
2006,07,16,01,52,10.20
2006,07,16,01,53,10.20
2006,07,16,01,54,10.10
2006,07,16,01,55,10.10
2006,07,16,01,56,10.10
2006,07,16,01,57,10.10
2006,07,16,01,58,10.10
2006,07,16,01,59,10.10
2006,07,16,02,00,10.10
2006,07,16,02,01,10.10
2006,07,16,02,02,10.10
2006,07,16,02,03,10.10
2006,07,16,02,04,10.10
2006,07,16,02,05,10.00
2006,07,16,02,06,10.00
2006,07,16,02,07,9.90
2006,07,16,02,08,9.90
2006,07,16,02,09,9.90
2006,07,16,02,10,9.90
2006,07,16,02,11,9.90
2006,07,16,02,12,9.90
2006,07,16,02,13,9.90
2006,07,16,02,14,9.90
2006,07,16,02,15,9.90
2006,07,16,02,16,9.90
2006,07,16,02,17,9.90
2006,07,16,02,18,9.90
2006,07,16,02,19,9.80
2006,07,16,02,20,9.80
2006,07,16,02,21,9.80
2006,07,16,02,22,9.80
2006,07,16,02,23,9.80
2006,07,16,02,24,9.80
2006,07,16,02,25,9.70
2006,07,16,02,26,9.70
2006,07,16,02,27,9.70
2006,07,16,02,28,9.70
2006,07,16,02,29,9.70
2006,07,16,02,30,9.70
2006,07,16,02,31,9.70
2006,07,16,02,32,9.70
2006,07,16,02,33,9.70
2006,07,16,02,34,9.70
2006,07,16,02,35,9.70
2006,07,16,02,36,9.70
2006,07,16,02,37,9.60
2006,07,16,02,38,9.60
2006,07,16,02,39,9.60
2006,07,16,02,40,9.60
2006,07,16,02,41,9.60
2006,07,16,02,42,9.60
2006,07,16,02,43,9.60
2006,07,16,02,44,9.60
2006,07,16,02,45,9.60
2006,07,16,02,46,9.60
2006,07,16,02,47,9.60
2006,07,16,02,48,9.60
2006,07,16,02,49,9.60
2006,07,16,02,50,9.60
2006,07,16,02,51,9.50
2006,07,16,02,52,9.50
2006,07,16,02,53,9.50
2006,07,16,02,54,9.50
2006,07,16,02,55,9.50
2006,07,16,02,56,9.50
2006,07,16,02,57,9.50
2006,07,16,02,58,9.40
2006,07,16,02,59,9.40
2006,07,16,03,00,9.40
2006,07,16,03,01,9.40
2006,07,16,03,02,9.40
2006,07,16,03,03,9.40
2006,07,16,03,04,9.30
2006,07,16,03,05,9.30
2006,07,16,03,06,9.30
2006,07,16,03,07,9.30
2006,07,16,03,08,9.30
2006,07,16,03,09,9.30
2006,07,16,03,10,9.20
2006,07,16,03,11,9.20
2006,07,16,03,12,9.20
2006,07,16,03,13,9.20
2006,07,16,03,14,9.20
2006,07,16,03,15,9.20
2006,07,16,03,16,9.20
2006,07,16,03,17,9.20
2006,07,16,03,18,9.20
2006,07,16,03,19,9.20
2006,07,16,03,20,9.20
2006,07,16,03,21,9.20
2006,07,16,03,22,9.20
2006,07,16,03,23,9.10
2006,07,16,03,24,9.10
2006,07,16,03,25,9.10
2006,07,16,03,26,9.10
2006,07,16,03,27,9.10
2006,07,16,03,28,9.10
2006,07,16,03,29,9.00
2006,07,16,03,30,9.00
2006,07,16,03,31,9.00
2006,07,16,03,32,9.00
2006,07,16,03,33,9.00
2006,07,16,03,34,9.00
2006,07,16,03,35,9.00
2006,07,16,03,36,9.00
2006,07,16,03,37,9.00
2006,07,16,03,38,8.90
2006,07,16,03,39,8.90
2006,07,16,03,40,8.90
2006,07,16,03,41,8.90
2006,07,16,03,42,8.90
2006,07,16,03,43,8.90
2006,07,16,03,44,8.90
2006,07,16,03,45,8.90
2006,07,16,03,46,8.90
2006,07,16,03,47,8.80
2006,07,16,03,48,8.80
2006,07,16,03,49,8.80
2006,07,16,03,50,8.80
2006,07,16,03,51,8.80
2006,07,16,03,52,8.80
2006,07,16,03,53,8.70
2006,07,16,03,54,8.70
2006,07,16,03,55,8.70
2006,07,16,03,56,8.70
2006,07,16,03,57,8.70
2006,07,16,03,58,8.70
2006,07,16,03,59,8.70
2006,07,16,04,00,8.70
2006,07,16,04,01,8.70
2006,07,16,04,02,8.70
2006,07,16,04,03,8.70
2006,07,16,04,04,8.70
2006,07,16,04,05,8.70
2006,07,16,04,06,8.70
2006,07,16,04,07,8.70
2006,07,16,04,08,8.70
2006,07,16,04,09,8.70
2006,07,16,04,10,8.70
2006,07,16,04,11,8.70
2006,07,16,04,12,8.70
2006,07,16,04,13,8.60
2006,07,16,04,14,8.60
2006,07,16,04,15,8.60
2006,07,16,04,16,8.60
2006,07,16,04,17,8.60
2006,07,16,04,18,8.60
2006,07,16,04,19,8.60
2006,07,16,04,20,8.60
2006,07,16,04,21,8.60
2006,07,16,04,22,8.60
2006,07,16,04,23,8.60
2006,07,16,04,24,8.60
2006,07,16,04,25,8.60
2006,07,16,04,26,8.60
2006,07,16,04,27,8.60
2006,07,16,04,28,8.60
2006,07,16,04,29,8.60
2006,07,16,04,30,8.60
2006,07,16,04,31,8.60
2006,07,16,04,32,8.60
2006,07,16,04,33,8.60
2006,07,16,04,34,8.50
2006,07,16,04,35,8.50
2006,07,16,04,36,8.50
2006,07,16,04,37,8.50
2006,07,16,04,38,8.50
2006,07,16,04,39,8.50
2006,07,16,04,40,8.50
2006,07,16,04,41,8.50
2006,07,16,04,42,8.40
2006,07,16,04,43,8.40
2006,07,16,04,44,8.40
2006,07,16,04,45,8.40
2006,07,16,04,46,8.40
2006,07,16,04,47,8.40
2006,07,16,04,48,8.40
2006,07,16,04,49,8.40
2006,07,16,04,50,8.40
2006,07,16,04,51,8.40
2006,07,16,04,52,8.40
2006,07,16,04,53,8.40
2006,07,16,04,54,8.30
2006,07,16,04,55,8.30
2006,07,16,04,56,8.30
2006,07,16,04,57,8.30
2006,07,16,04,58,8.30
2006,07,16,04,59,8.30
2006,07,16,05,00,8.30
2006,07,16,05,01,8.30
2006,07,16,05,02,8.30
2006,07,16,05,03,8.30
2006,07,16,05,04,8.30
2006,07,16,05,05,8.30
2006,07,16,05,06,8.30
2006,07,16,05,07,8.30
2006,07,16,05,08,8.30
2006,07,16,05,09,8.30
2006,07,16,05,10,8.20
2006,07,16,05,11,8.20
2006,07,16,05,12,8.20
2006,07,16,05,13,8.20
2006,07,16,05,14,8.20
2006,07,16,05,15,8.20
2006,07,16,05,16,8.20
2006,07,16,05,17,8.20
2006,07,16,05,18,8.20
2006,07,16,05,19,8.20
2006,07,16,05,20,8.20
2006,07,16,05,21,8.20
2006,07,16,05,22,8.20
2006,07,16,05,23,8.10
2006,07,16,05,24,8.10
2006,07,16,05,25,8.10
2006,07,16,05,26,8.10
2006,07,16,05,27,8.10
2006,07,16,05,28,8.10
2006,07,16,05,29,8.00
2006,07,16,05,30,8.00
2006,07,16,05,31,8.00
2006,07,16,05,32,8.00
2006,07,16,05,33,8.00
2006,07,16,05,34,8.00
2006,07,16,05,35,8.00
2006,07,16,05,36,8.00
2006,07,16,05,37,8.00
2006,07,16,05,38,8.00
2006,07,16,05,39,8.00
2006,07,16,05,40,8.00
2006,07,16,05,41,8.00
2006,07,16,05,42,8.00
2006,07,16,05,43,8.00
2006,07,16,05,44,8.00
2006,07,16,05,45,8.00
2006,07,16,05,46,8.00
2006,07,16,05,47,7.90
2006,07,16,05,48,7.90
2006,07,16,05,49,7.90
2006,07,16,05,50,7.90
2006,07,16,05,51,7.90
2006,07,16,05,52,7.90
2006,07,16,05,53,7.90
2006,07,16,05,54,7.90
2006,07,16,05,55,7.90
2006,07,16,05,56,7.90
2006,07,16,05,57,7.90
2006,07,16,05,58,7.90
2006,07,16,05,59,7.80
2006,07,16,06,00,7.80
2006,07,16,06,01,7.80
2006,07,16,06,02,7.80
2006,07,16,06,03,7.90
2006,07,16,06,04,7.90
2006,07,16,06,05,7.90
2006,07,16,06,06,7.90
2006,07,16,06,07,7.90
2006,07,16,06,08,7.90
2006,07,16,06,09,7.90
2006,07,16,06,10,8.00
2006,07,16,06,11,8.00
2006,07,16,06,12,8.00
2006,07,16,06,13,8.00
2006,07,16,06,14,8.00
2006,07,16,06,15,8.00
2006,07,16,06,16,8.00
2006,07,16,06,17,8.00
2006,07,16,06,18,8.00
2006,07,16,06,19,8.00
2006,07,16,06,20,8.00
2006,07,16,06,21,8.10
2006,07,16,06,22,8.10
2006,07,16,06,23,8.10
2006,07,16,06,24,8.10
2006,07,16,06,25,8.10
2006,07,16,06,26,8.10
2006,07,16,06,27,8.20
2006,07,16,06,28,8.20
2006,07,16,06,29,8.20
2006,07,16,06,30,8.20
2006,07,16,06,31,8.20
2006,07,16,06,32,8.20
2006,07,16,06,33,8.20
2006,07,16,06,34,8.30
2006,07,16,06,35,8.40
2006,07,16,06,36,8.40
2006,07,16,06,37,8.50
2006,07,16,06,38,8.60
2006,07,16,06,39,8.70
2006,07,16,06,40,8.70
2006,07,16,06,41,8.90
2006,07,16,06,42,8.90
2006,07,16,06,43,9.00
2006,07,16,06,44,9.20
2006,07,16,06,45,9.30
2006,07,16,06,46,9.40
2006,07,16,06,47,9.50
2006,07,16,06,48,9.60
2006,07,16,06,49,9.70
2006,07,16,06,50,9.80
2006,07,16,06,51,10.00
2006,07,16,06,52,10.10
2006,07,16,06,53,10.20
2006,07,16,06,54,10.30
2006,07,16,06,55,10.50
2006,07,16,06,56,10.60
2006,07,16,06,57,10.70
2006,07,16,06,58,10.80
2006,07,16,06,59,10.90
2006,07,16,07,00,11.00
2006,07,16,07,01,11.10
2006,07,16,07,02,11.10
2006,07,16,07,03,11.20
2006,07,16,07,04,11.30
2006,07,16,07,05,11.40
2006,07,16,07,06,11.50
2006,07,16,07,07,11.60
2006,07,16,07,08,11.60
2006,07,16,07,09,11.70
2006,07,16,07,10,11.80
2006,07,16,07,11,11.80
2006,07,16,07,12,11.80
2006,07,16,07,13,11.80
2006,07,16,07,14,11.90
2006,07,16,07,15,12.00
2006,07,16,07,16,12.00
2006,07,16,07,17,12.10
2006,07,16,07,18,12.20
2006,07,16,07,19,12.30
2006,07,16,07,20,12.30
2006,07,16,07,21,12.40
2006,07,16,07,22,12.50
2006,07,16,07,23,12.50
2006,07,16,07,24,12.60
2006,07,16,07,25,12.70
2006,07,16,07,26,12.70
2006,07,16,07,27,12.70
2006,07,16,07,28,12.80
2006,07,16,07,29,12.80
2006,07,16,07,30,12.80
2006,07,16,07,31,12.90
2006,07,16,07,32,13.00
2006,07,16,07,33,13.10
2006,07,16,07,34,13.20
2006,07,16,07,35,13.30
2006,07,16,07,36,13.40
2006,07,16,07,37,13.50
2006,07,16,07,38,13.50
2006,07,16,07,39,13.60
2006,07,16,07,40,13.70
2006,07,16,07,41,13.80
2006,07,16,07,42,13.90
2006,07,16,07,43,13.90
2006,07,16,07,44,14.00
2006,07,16,07,45,14.20
2006,07,16,07,46,14.30
2006,07,16,07,47,14.40
2006,07,16,07,48,14.50
2006,07,16,07,49,14.70
2006,07,16,07,50,14.80
2006,07,16,07,51,15.00
2006,07,16,07,52,15.20
2006,07,16,07,53,15.30
2006,07,16,07,54,15.40
2006,07,16,07,55,15.50
2006,07,16,07,56,15.60
2006,07,16,07,57,15.70
2006,07,16,07,58,15.80
2006,07,16,07,59,16.00
2006,07,16,08,00,16.20
2006,07,16,08,01,16.30
2006,07,16,08,02,16.30
2006,07,16,08,03,16.40
2006,07,16,08,04,16.40
2006,07,16,08,05,16.60
2006,07,16,08,06,16.70
2006,07,16,08,07,16.70
2006,07,16,08,08,16.70
2006,07,16,08,09,16.70
2006,07,16,08,10,16.80
2006,07,16,08,11,16.90
2006,07,16,08,12,17.00
2006,07,16,08,13,17.00
2006,07,16,08,14,17.10
2006,07,16,08,15,17.20
2006,07,16,08,16,17.20
2006,07,16,08,17,17.20
2006,07,16,08,18,17.20
2006,07,16,08,19,17.30
2006,07,16,08,20,17.30
2006,07,16,08,21,17.30
2006,07,16,08,22,17.30
2006,07,16,08,23,17.30
2006,07,16,08,24,17.30
2006,07,16,08,25,17.30
2006,07,16,08,26,17.30
2006,07,16,08,27,17.30
2006,07,16,08,28,17.40
2006,07,16,08,29,17.50
2006,07,16,08,30,17.50
2006,07,16,08,31,17.60
2006,07,16,08,32,17.60
2006,07,16,08,33,17.70
2006,07,16,08,34,17.70
2006,07,16,08,35,17.70
2006,07,16,08,36,17.70
2006,07,16,08,37,17.70
2006,07,16,08,38,17.70
2006,07,16,08,39,17.70
2006,07,16,08,40,17.80
2006,07,16,08,41,17.80
2006,07,16,08,42,17.90
2006,07,16,08,43,17.90
2006,07,16,08,44,18.10
2006,07,16,08,45,18.10
2006,07,16,08,46,18.20
2006,07,16,08,47,18.30
2006,07,16,08,48,18.30
2006,07,16,08,49,18.40
2006,07,16,08,50,18.40
2006,07,16,08,51,18.40
2006,07,16,08,52,18.30
2006,07,16,08,53,18.20
2006,07,16,08,54,18.10
2006,07,16,08,55,18.10
2006,07,16,08,56,18.10
2006,07,16,08,57,18.20
2006,07,16,08,58,18.20
2006,07,16,08,59,18.20
2006,07,16,09,00,18.20
2006,07,16,09,01,18.30
2006,07,16,09,02,18.30
2006,07,16,09,03,18.30
2006,07,16,09,04,18.20
2006,07,16,09,05,18.20
2006,07,16,09,06,18.20
2006,07,16,09,07,18.20
2006,07,16,09,08,18.20
2006,07,16,09,09,18.20
2006,07,16,09,10,18.20
2006,07,16,09,11,18.20
2006,07,16,09,12,18.20
2006,07,16,09,13,18.20
2006,07,16,09,14,18.30
2006,07,16,09,15,18.30
2006,07,16,09,16,18.20
2006,07,16,09,17,18.30
2006,07,16,09,18,18.30
2006,07,16,09,19,18.30
2006,07,16,09,20,18.40
2006,07,16,09,21,18.40
2006,07,16,09,22,18.40
2006,07,16,09,23,18.40
2006,07,16,09,24,18.40
2006,07,16,09,25,18.40
2006,07,16,09,26,18.40
2006,07,16,09,27,18.50
2006,07,16,09,28,18.50
2006,07,16,09,29,18.60
2006,07,16,09,30,18.70
2006,07,16,09,31,18.70
2006,07,16,09,32,18.70
2006,07,16,09,33,18.80
2006,07,16,09,34,18.80
2006,07,16,09,35,18.90
2006,07,16,09,36,18.90
2006,07,16,09,37,18.90
2006,07,16,09,38,18.90
2006,07,16,09,39,18.90
2006,07,16,09,40,18.90
2006,07,16,09,41,18.90
2006,07,16,09,42,19.00
2006,07,16,09,43,19.10
2006,07,16,09,44,19.10
2006,07,16,09,45,19.30
2006,07,16,09,46,19.30
2006,07,16,09,47,19.40
2006,07,16,09,48,19.50
2006,07,16,09,49,19.60
2006,07,16,09,50,19.60
2006,07,16,09,51,19.70
2006,07,16,09,52,19.80
2006,07,16,09,53,19.90
2006,07,16,09,54,19.90
2006,07,16,09,55,19.90
2006,07,16,09,56,19.90
2006,07,16,09,57,19.90
2006,07,16,09,58,19.90
2006,07,16,09,59,19.90
2006,07,16,10,00,19.90
2006,07,16,10,01,19.80
2006,07,16,10,02,19.70
2006,07,16,10,03,19.70
2006,07,16,10,04,19.60
2006,07,16,10,05,19.60
2006,07,16,10,06,19.70
2006,07,16,10,07,19.70
2006,07,16,10,08,19.70
2006,07,16,10,09,19.80
2006,07,16,10,10,19.80
2006,07,16,10,11,19.80
2006,07,16,10,12,19.80
2006,07,16,10,13,19.90
2006,07,16,10,14,19.90
2006,07,16,10,15,19.90
2006,07,16,10,16,19.90
2006,07,16,10,17,20.00
2006,07,16,10,18,20.10
2006,07,16,10,19,20.10
2006,07,16,10,20,20.10
2006,07,16,10,21,20.20
2006,07,16,10,22,20.20
2006,07,16,10,23,20.20
2006,07,16,10,24,20.20
2006,07,16,10,25,20.20
2006,07,16,10,26,20.20
2006,07,16,10,27,20.20
2006,07,16,10,28,20.20
2006,07,16,10,29,20.20
2006,07,16,10,30,20.20
2006,07,16,10,31,20.30
2006,07,16,10,32,20.30
2006,07,16,10,33,20.30
2006,07,16,10,34,20.30
2006,07,16,10,35,20.30
2006,07,16,10,36,20.30
2006,07,16,10,37,20.30
2006,07,16,10,38,20.30
2006,07,16,10,39,20.30
2006,07,16,10,40,20.30
2006,07,16,10,41,20.30
2006,07,16,10,42,20.30
2006,07,16,10,43,20.40
2006,07,16,10,44,20.50
2006,07,16,10,45,20.50
2006,07,16,10,46,20.50
2006,07,16,10,47,20.50
2006,07,16,10,48,20.60
2006,07,16,10,49,20.60
2006,07,16,10,50,20.70
2006,07,16,10,51,20.60
2006,07,16,10,52,20.50
2006,07,16,10,53,20.30
2006,07,16,10,54,20.30
2006,07,16,10,55,20.40
2006,07,16,10,56,20.50
2006,07,16,10,57,20.60
2006,07,16,10,58,20.70
2006,07,16,10,59,20.80
2006,07,16,11,00,20.80
2006,07,16,11,01,20.80
2006,07,16,11,02,20.70
2006,07,16,11,03,20.70
2006,07,16,11,04,20.60
2006,07,16,11,05,20.50
2006,07,16,11,06,20.40
2006,07,16,11,07,20.30
2006,07,16,11,08,20.20
2006,07,16,11,09,20.10
2006,07,16,11,10,19.90
2006,07,16,11,11,19.90
2006,07,16,11,12,19.90
2006,07,16,11,13,19.90
2006,07,16,11,14,20.00
2006,07,16,11,15,20.20
2006,07,16,11,16,20.30
2006,07,16,11,17,20.50
2006,07,16,11,18,20.60
2006,07,16,11,19,20.80
2006,07,16,11,20,20.80
2006,07,16,11,21,20.80
2006,07,16,11,22,20.70
2006,07,16,11,23,20.50
2006,07,16,11,24,20.40
2006,07,16,11,25,20.40
2006,07,16,11,26,20.40
2006,07,16,11,27,20.40
2006,07,16,11,28,20.40
2006,07,16,11,29,20.50
2006,07,16,11,30,20.60
2006,07,16,11,31,20.70
2006,07,16,11,32,20.80
2006,07,16,11,33,20.80
2006,07,16,11,34,20.90
2006,07,16,11,35,20.80
2006,07,16,11,36,20.70
2006,07,16,11,37,20.60
2006,07,16,11,38,20.70
2006,07,16,11,39,20.80
2006,07,16,11,40,20.80
2006,07,16,11,41,20.90
2006,07,16,11,42,21.00
2006,07,16,11,43,21.10
2006,07,16,11,44,21.20
2006,07,16,11,45,21.20
2006,07,16,11,46,21.20
2006,07,16,11,47,21.00
2006,07,16,11,48,20.80
2006,07,16,11,49,20.60
2006,07,16,11,50,20.50
2006,07,16,11,51,20.40
2006,07,16,11,52,20.30
2006,07,16,11,53,20.40
2006,07,16,11,54,20.50
2006,07,16,11,55,20.60
2006,07,16,11,56,20.70
2006,07,16,11,57,20.80
2006,07,16,11,58,21.00
2006,07,16,11,59,21.10
2006,07,16,12,00,21.20
2006,07,16,12,01,21.10
2006,07,16,12,02,21.00
2006,07,16,12,03,20.90
2006,07,16,12,04,20.80
2006,07,16,12,05,20.70
2006,07,16,12,06,20.60
2006,07,16,12,07,20.60
2006,07,16,12,08,20.60
2006,07,16,12,09,20.50
2006,07,16,12,10,20.50
2006,07,16,12,11,20.50
2006,07,16,12,12,20.50
2006,07,16,12,13,20.60
2006,07,16,12,14,20.70
2006,07,16,12,15,20.70
2006,07,16,12,16,20.70
2006,07,16,12,17,20.70
2006,07,16,12,18,20.60
2006,07,16,12,19,20.50
2006,07,16,12,20,20.50
2006,07,16,12,21,20.50
2006,07,16,12,22,20.50
2006,07,16,12,23,20.60
2006,07,16,12,24,20.70
2006,07,16,12,25,20.90
2006,07,16,12,26,21.00
2006,07,16,12,27,21.10
2006,07,16,12,28,21.10
2006,07,16,12,29,21.10
2006,07,16,12,30,21.00
2006,07,16,12,31,20.90
2006,07,16,12,32,20.80
2006,07,16,12,33,20.80
2006,07,16,12,34,20.80
2006,07,16,12,35,20.80
2006,07,16,12,36,20.90
2006,07,16,12,37,20.90
2006,07,16,12,38,20.90
2006,07,16,12,39,20.80
2006,07,16,12,40,20.80
2006,07,16,12,41,20.70
2006,07,16,12,42,20.70
2006,07,16,12,43,20.70
2006,07,16,12,44,20.70
2006,07,16,12,45,20.80
2006,07,16,12,46,20.80
2006,07,16,12,47,20.90
2006,07,16,12,48,21.10
2006,07,16,12,49,21.20
2006,07,16,12,50,21.30
2006,07,16,12,51,21.30
2006,07,16,12,52,21.40
2006,07,16,12,53,21.50
2006,07,16,12,54,21.60
2006,07,16,12,55,21.70
2006,07,16,12,56,21.70
2006,07,16,12,57,21.50
2006,07,16,12,58,21.40
2006,07,16,12,59,21.40
2006,07,16,13,00,21.30
2006,07,16,13,01,21.30
2006,07,16,13,02,21.40
2006,07,16,13,03,21.40
2006,07,16,13,04,21.50
2006,07,16,13,05,21.60
2006,07,16,13,06,21.60
2006,07,16,13,07,21.60
2006,07,16,13,08,21.60
2006,07,16,13,09,21.40
2006,07,16,13,10,21.50
2006,07,16,13,11,21.50
2006,07,16,13,12,21.40
2006,07,16,13,13,21.40
2006,07,16,13,14,21.40
2006,07,16,13,15,21.40
2006,07,16,13,16,21.40
2006,07,16,13,17,21.30
2006,07,16,13,18,21.40
2006,07,16,13,19,21.40
2006,07,16,13,20,21.50
2006,07,16,13,21,21.60
2006,07,16,13,22,21.80
2006,07,16,13,23,21.90
2006,07,16,13,24,22.10
2006,07,16,13,25,22.20
2006,07,16,13,26,22.20
2006,07,16,13,27,22.20
2006,07,16,13,28,22.10
2006,07,16,13,29,22.10
2006,07,16,13,30,22.10
2006,07,16,13,31,22.00
2006,07,16,13,32,22.10
2006,07,16,13,33,22.20
2006,07,16,13,34,22.30
2006,07,16,13,35,22.20
2006,07,16,13,36,22.10
2006,07,16,13,37,22.00
2006,07,16,13,38,21.90
2006,07,16,13,39,21.80
2006,07,16,13,40,21.80
2006,07,16,13,41,21.80
2006,07,16,13,42,21.80
2006,07,16,13,43,21.80
2006,07,16,13,44,21.90
2006,07,16,13,45,21.90
2006,07,16,13,46,21.90
2006,07,16,13,47,21.90
2006,07,16,13,48,22.00
2006,07,16,13,49,22.10
2006,07,16,13,50,22.00
2006,07,16,13,51,22.00
2006,07,16,13,52,22.00
2006,07,16,13,53,22.10
2006,07,16,13,54,22.20
2006,07,16,13,55,22.40
2006,07,16,13,56,22.60
2006,07,16,13,57,22.80
2006,07,16,13,58,22.90
2006,07,16,13,59,22.90
2006,07,16,14,00,22.90
2006,07,16,14,01,22.80
2006,07,16,14,02,22.70
2006,07,16,14,03,22.70
2006,07,16,14,04,22.70
2006,07,16,14,05,22.70
2006,07,16,14,06,22.60
2006,07,16,14,07,22.50
2006,07,16,14,08,22.50
2006,07,16,14,09,22.50
2006,07,16,14,10,22.40
2006,07,16,14,11,22.40
2006,07,16,14,12,22.20
2006,07,16,14,13,22.20
2006,07,16,14,14,22.20
2006,07,16,14,15,22.10
2006,07,16,14,16,22.10
2006,07,16,14,17,22.10
2006,07,16,14,18,22.10
2006,07,16,14,19,22.20
2006,07,16,14,20,22.20
2006,07,16,14,21,22.30
2006,07,16,14,22,22.40
2006,07,16,14,23,22.50
2006,07,16,14,24,22.40
2006,07,16,14,25,22.40
2006,07,16,14,26,22.40
2006,07,16,14,27,22.40
2006,07,16,14,28,22.40
2006,07,16,14,29,22.50
2006,07,16,14,30,22.50
2006,07,16,14,31,22.50
2006,07,16,14,32,22.50
2006,07,16,14,33,22.50
2006,07,16,14,34,22.50
2006,07,16,14,35,22.50
2006,07,16,14,36,22.30
2006,07,16,14,37,22.20
2006,07,16,14,38,22.20
2006,07,16,14,39,22.10
2006,07,16,14,40,22.10
2006,07,16,14,41,22.10
2006,07,16,14,42,22.10
2006,07,16,14,43,22.20
2006,07,16,14,44,22.30
2006,07,16,14,45,22.40
2006,07,16,14,46,22.50
2006,07,16,14,47,22.60
2006,07,16,14,48,22.60
2006,07,16,14,49,22.60
2006,07,16,14,50,22.50
2006,07,16,14,51,22.40
2006,07,16,14,52,22.40
2006,07,16,14,53,22.40
2006,07,16,14,54,22.50
2006,07,16,14,55,22.50
2006,07,16,14,56,22.50
2006,07,16,14,57,22.50
2006,07,16,14,58,22.60
2006,07,16,14,59,22.70
2006,07,16,15,00,22.80
2006,07,16,15,01,22.80
2006,07,16,15,02,22.90
2006,07,16,15,03,22.90
2006,07,16,15,04,22.90
2006,07,16,15,05,23.00
2006,07,16,15,06,23.10
2006,07,16,15,07,23.10
2006,07,16,15,08,23.10
2006,07,16,15,09,22.90
2006,07,16,15,10,22.90
2006,07,16,15,11,22.90
2006,07,16,15,12,22.80
2006,07,16,15,13,22.90
2006,07,16,15,14,22.90
2006,07,16,15,15,22.90
2006,07,16,15,16,23.10
2006,07,16,15,17,23.10
2006,07,16,15,18,23.10
2006,07,16,15,19,23.20
2006,07,16,15,20,23.20
2006,07,16,15,21,23.20
2006,07,16,15,22,23.20
2006,07,16,15,23,23.10
2006,07,16,15,24,23.10
2006,07,16,15,25,23.00
2006,07,16,15,26,22.90
2006,07,16,15,27,22.90
2006,07,16,15,28,22.90
2006,07,16,15,29,22.90
2006,07,16,15,30,22.90
2006,07,16,15,31,22.90
2006,07,16,15,32,22.90
2006,07,16,15,33,23.00
2006,07,16,15,34,23.10
2006,07,16,15,35,23.10
2006,07,16,15,36,23.10
2006,07,16,15,37,23.10
2006,07,16,15,38,23.20
2006,07,16,15,39,23.10
2006,07,16,15,40,23.00
2006,07,16,15,41,22.90
2006,07,16,15,42,22.90
2006,07,16,15,43,22.80
2006,07,16,15,44,22.70
2006,07,16,15,45,22.60
2006,07,16,15,46,22.60
2006,07,16,15,47,22.60
2006,07,16,15,48,22.50
2006,07,16,15,49,22.50
2006,07,16,15,50,22.40
2006,07,16,15,51,22.40
2006,07,16,15,52,22.50
2006,07,16,15,53,22.60
2006,07,16,15,54,22.60
2006,07,16,15,55,22.60
2006,07,16,15,56,22.60
2006,07,16,15,57,22.60
2006,07,16,15,58,22.60
2006,07,16,15,59,22.60
2006,07,16,16,00,22.60
2006,07,16,16,01,22.60
2006,07,16,16,02,22.70
2006,07,16,16,03,22.80
2006,07,16,16,04,23.00
2006,07,16,16,05,23.10
2006,07,16,16,06,23.10
2006,07,16,16,07,22.90
2006,07,16,16,08,22.80
2006,07,16,16,09,22.70
2006,07,16,16,10,22.70
2006,07,16,16,11,22.60
2006,07,16,16,12,22.40
2006,07,16,16,13,22.40
2006,07,16,16,14,22.40
2006,07,16,16,15,22.40
2006,07,16,16,16,22.50
2006,07,16,16,17,22.60
2006,07,16,16,18,22.60
2006,07,16,16,19,22.60
2006,07,16,16,20,22.50
2006,07,16,16,21,22.40
2006,07,16,16,22,22.30
2006,07,16,16,23,22.30
2006,07,16,16,24,22.30
2006,07,16,16,25,22.40
2006,07,16,16,26,22.60
2006,07,16,16,27,22.70
2006,07,16,16,28,22.80
2006,07,16,16,29,22.80
2006,07,16,16,30,22.80
2006,07,16,16,31,22.80
2006,07,16,16,32,22.80
2006,07,16,16,33,22.70
2006,07,16,16,34,22.70
2006,07,16,16,35,22.80
2006,07,16,16,36,22.80
2006,07,16,16,37,22.90
2006,07,16,16,38,22.90
2006,07,16,16,39,22.90
2006,07,16,16,40,22.90
2006,07,16,16,41,22.90
2006,07,16,16,42,22.90
2006,07,16,16,43,23.00
2006,07,16,16,44,23.10
2006,07,16,16,45,23.10
2006,07,16,16,46,23.10
2006,07,16,16,47,23.10
2006,07,16,16,48,23.10
2006,07,16,16,49,23.20
2006,07,16,16,50,23.30
2006,07,16,16,51,23.30
2006,07,16,16,52,23.30
2006,07,16,16,53,23.30
2006,07,16,16,54,23.30
2006,07,16,16,55,23.30
2006,07,16,16,56,23.40
2006,07,16,16,57,23.50
2006,07,16,16,58,23.60
2006,07,16,16,59,23.70
2006,07,16,17,00,23.70
2006,07,16,17,01,23.70
2006,07,16,17,02,23.80
2006,07,16,17,03,23.80
2006,07,16,17,04,23.80
2006,07,16,17,05,23.70
2006,07,16,17,06,23.60
2006,07,16,17,07,23.60
2006,07,16,17,08,23.60
2006,07,16,17,09,23.40
2006,07,16,17,10,23.30
2006,07,16,17,11,23.30
2006,07,16,17,12,23.30
2006,07,16,17,13,23.30
2006,07,16,17,14,23.40
2006,07,16,17,15,23.50
2006,07,16,17,16,23.60
2006,07,16,17,17,23.70
2006,07,16,17,18,23.70
2006,07,16,17,19,23.70
2006,07,16,17,20,23.70
2006,07,16,17,21,23.70
2006,07,16,17,22,23.70
2006,07,16,17,23,23.70
2006,07,16,17,24,23.60
2006,07,16,17,25,23.60
2006,07,16,17,26,23.40
2006,07,16,17,27,23.40
2006,07,16,17,28,23.30
2006,07,16,17,29,23.20
2006,07,16,17,30,23.20
2006,07,16,17,31,23.10